Miscellaneous Local Product
Issued by NWS Hastings, NE

Home | Current Version | Previous Version | Graphics & Text | Print | Product List | Glossary On
Versions: 1 2 3 4 5 6 7 8 9 10 11 12 13 14 15 16 17 18 19 20 21 22 23 24 25 26 27 28 29 30 31 32 33 34 35 36 37 38 39 40 41 42 43 44 45 46 47 48 49 50
000
AXUS43 KGID 220702
MISGRI

GID CWA HOURLY WEATHER ROUNDUP
NATIONAL WEATHER SERVICE HASTINGS NE
200 AM CDT WED OCT 22 2014

NOTE: "FAIR" INDICATES FEW OR NO CLOUDS BELOW 12,000 FEET WITH NO
SIGNIFICANT WEATHER AND/OR OBSTRUCTIONS TO VISIBILITY.

...SOUTH CENTRAL NEBRASKA...

CITY           SKY/WX    TMP DP  RH WIND       PRES   REMARKS
GRAND ISLAND   CLEAR     58  50  75 SE12      29.99R
HASTINGS       PTCLDY    59  52  77 S9        29.99R
KEARNEY        CLEAR     59  54  82 SE10      29.97S
ORD            CLEAR     55  49  80 SE6       29.94S
YORK           CLEAR     57  45  62 SE12      30.02R
AURORA         CLEAR     57  47  67 SE9       30.00R HAZE
LEXINGTON      PTCLDY    60  55  83 SE8       29.95R
HOLDREGE       PTCLDY    58  54  86 S10       29.96S
HEBRON         CLEAR     57  49  76 SE8       30.01S

...NEBRASKA PANHANDLE...

CITY           SKY/WX    TMP DP  RH WIND       PRES   REMARKS
CHADRON        CLOUDY    60  49  66 W7        29.83R
ALLIANCE       CLOUDY    47  42  83 CALM      29.89R
SCOTTSBLUFF    LGT RAIN  56  50  80 W16G28    29.96R
SIDNEY         CLOUDY    56  41  57 NW16      29.94R

...WESTERN AND NORTH CENTRAL NEBRASKA...

CITY           SKY/WX    TMP DP  RH WIND       PRES   REMARKS
VALENTINE      CLEAR     62  55  77 S15       29.85R
AINSWORTH      CLEAR     58  53  81 S16G23    29.88S
ONEILL         CLEAR     58  45  61 SE14      29.93S
BROKEN BOW     PTCLDY    58  54  86 SE8       29.93S
IMPERIAL       PTCLDY    61  46  57 S10       29.91S
NORTH PLATTE   CLEAR     63  51  65 S13       29.90F
MCCOOK         CLEAR     63  51  65 S15G23    29.93S

...EASTERN NEBRASKA...

CITY           SKY/WX    TMP DP  RH WIND       PRES   REMARKS
NORFOLK        CLEAR     58  41  53 SE20      30.00S
SO SIOUX CITY  CLOUDY    55  46  71 SE9       30.06R
TEKAMAH        CLOUDY    57  45  64 SE14      30.07R
COLUMBUS       CLEAR     59  39  47 SE12G17   30.03S
ALBION         CLEAR     56  42  59 SE9       29.99R
OMAHA EPPLEY   MOCLDY    57  44  62 SE17      30.08R
OFFUTT AFB     MOCLDY    57  49  75 SE14      30.08R
MILLARD        CLOUDY    58  46  63 SE10      30.07R
LINCOLN        CLEAR     60  42  51 SE16G23   30.05R
NEBRASKA CITY  CLEAR     55  41  57 SE13      30.09R
BEATRICE       CLEAR     58  45  60 SE9       30.04S
FALLS CITY     CLEAR     55  45  68 SE9       30.09R

...NORTHERN KANSAS...

CITY           SKY/WX    TMP DP  RH WIND       PRES   REMARKS
GOODLAND       PTCLDY    53  47  79 S13       29.96S
HILL CITY      CLEAR     61  52  72 S6        29.98R
NORTON         SUNNY     59  48  67 S8        29.96R
PHILLIPSBURG   CLEAR     64  55  72 S9        29.97S
SMITH CENTER   CLEAR     59  54  82 SE8       29.99S
BELOIT         CLEAR     63  57  82 SE9       29.99R
HAYS           PTCLDY    57  48  72 S8        30.00S
RUSSELL        PTCLDY    60  55  83 S9        29.99R
CONCORDIA      CLEAR     61  56  83 S15       30.01R
SALINA         CLEAR     64  57  78 S12       30.02R
TOPEKA         PTCLDY    58  46  64 E8        30.09S



USA.gov is the U.S. government's official web portal to all federal, state and local government web resources and services.